NILESAT 201

Last updated on Sat Apr 13 2024 01:02:37 GMT+0100 (British Summer Time)

1 36830U 10037A 24103.31405833 -.00000066 00000+0 00000+0 0 9999 2 36830 0.0210 163.1625 0002788 236.5355 267.3693 1.00269456 50388
UTC large
Height (km)
Speed (km/s)
/
Latitude / Longitude
Inclination (degrees)
Orbital Period (minutes)
Azimuth
Elevation
Range (km)
Doppler Factor

Next 0 passes for location: London (51.5072 / 0.1276)

Sorry there are no passes over London.